Skip Page Navigation
NASA JPL Caltech
NASA Logo - Jet Propulsion Laboratory + View the NASA Portal
+ Center for Near-Earth Object Studies
JPL Home Earth Solar System Stars & Galaxies Technology
JPL Solar System Dynamics
BODIES ORBITS EPHEMERIDES TOOLS PHYSICAL DATA DISCOVERY FAQ SITE MAP
JPL Small-Body Database Browser
Search: [ help ]  
52014 (2002 NZ13)
Classification: Main-belt Asteroid          SPK-ID: 2052014
Ephemeris | Orbit Diagram | Orbital Elements | Mission Design | Physical Parameters | Discovery Circumstances | Close-Approach Data ]

[ show orbit diagram ]
Orbital Elements at Epoch 2459200.5 (2020-Dec-17.0) TDB
Reference: JPL 23 (heliocentric ecliptic J2000)
 Element Value Uncertainty (1-sigma)   Units 
e .1516137494173274 3.5768e-08  
a 2.444381882002114 1.0972e-08 au
q 2.07377997986399 9.0484e-08 au
i 1.584077598659007 3.9889e-06 deg
node 284.7018821866458 0.00015318 deg
peri 345.8782368713973 0.00015396 deg
M 318.6440019775458 1.8455e-05 deg
tp 2459360.857034437861
(2021-May-26.35703444)
7.2181e-05 TDB
period 1395.892619162193
3.82
9.3985e-06
2.573e-08
d
yr
n .2578994938851887 1.7364e-09 deg/d
Q 2.814983784140238 1.2635e-08 au
  Orbit Determination Parameters
   # obs. used (total)      726  
   data-arc span      14882 days (40.74 yr)  
   first obs. used      1979-07-24  
   last obs. used      2020-04-21  
   planetary ephem.      DE441  
   SB-pert. ephem.      SB441-N16  
   condition code      0  
   norm. resid. RMS      .56109  
   source      ORB  
   producer      Otto Matic  
   solution date      2021-Apr-13 10:42:08  

Additional Information
 Earth MOID = 1.05583 au 
 Jupiter MOID = 2.27736 au 
 T_jup = 3.483 
[ show covariance matrix ]

Ephemeris | Orbit Diagram | Orbital Elements | Mission Design | Physical Parameters | Discovery Circumstances | Close-Approach Data ]

Physical Parameter Table
Parameter Symbol Value Units Sigma Reference Notes
absolute magnitude H 16.01   n/a E2021B10  
diameter diameter 1.908 km 0.370 urn:nasa:pds:neowise_diameters_albedos::2.0[mainbelt] (http://adsabs.harvard.edu/abs/2011ApJ...741...68M)  
geometric albedo albedo 0.193   0.037 urn:nasa:pds:neowise_diameters_albedos::2.0[mainbelt] (http://adsabs.harvard.edu/abs/2011ApJ...741...68M)  

52014 (2002 NZ13)          Discovered 2002-Jul-04 by NEAT at Palomar
Reference: 20021120/Numbers.arcLast Updated: 2004-04-19

[ show close-approach data ]
Alternate Designations
 2002 NZ13 = 1979 ON5 = 1999 VP25 = 2002 NR50 
Ephemeris | Orbit Diagram | Orbital Elements | Mission Design | Physical Parameters | Discovery Circumstances | Close-Approach Data ]
ABOUT SSD CREDITS/AWARDS PRIVACY/COPYRIGHT GLOSSARY LINKS
FirstGov 2021-Jun-16 18:39 UT
(server date/time)  
NASA Home Page
Site Manager:   Ryan S. Park
Webmaster  Alan B. Chamberlin